Location: Canazei
(46.4667°N, 11.7667°E)
Time: 19:21:08
(UTC+00:00)

N. Korean satellite - Pass Details

Date: 30 September 2021
Orbit: 450 x 495 km, 97.3° (Epoch: 16 October)

Event Time Altitude Azimuth Distance (km) Brightness Sun altitude
Rises 04:17:47 0° 16° (NNE) 2,543 10.5 -9.8°
Reaches altitude 10° 04:19:53 10° 22° (NNE) 1,667 9.7 -9.5°
Maximum altitude 04:23:24 53° 100° (E) 605 7.5 -8.9°
Drops below altitude 10° 04:26:56 10° 178° (S) 1,675 9.3 -8.3°
Sets 04:29:02 0° 183° (S) 2,557 10.2 -7.9°
